Погода в Ступино

Россия / Тульская область     53°08′09″N   38°31′08″E
темп.,
°C
ветер,
м/с
пор.,
м/с
влажн.,
%
обл.,
%
осадки,
мм/ч
давл.,
гПа
погр.,
м
18 января, вт
вт1800:00−2ююз71595100 0.3 991657
03:00−2ююз61293100 0.4 991482
06:00−2ю3897100 0.2 991269
09:00−3ююв2398100 0.4 99471
12:00−1ссз0197100 0.8 996165
15:00−1ссв2398100 1.9 999230
18:00−3с81395100 2.1 1004472
21:00−6с81493100 2.6 1008445
19 января, ср
ср1900:00−9с71593100 0.5 1013429
03:00−11с6149296 0.6 1016350
06:00−14с5119558 0.0 1018207
09:00−18ссз2299100 0.0 102035
12:00−13ссз259424 0.0 1020121
15:00−13зсз22945 0.0 102116
18:00−19зюз2210040 0.0 10219
21:00−20юз2210058 0.0 102122
20 января, чт
чт2000:00
03:00−16зюз389122 0.0 102098
06:00−17ююз49935 0.0 1019125
09:00
12:00−12ю6149057 0.0 1017311
15:00−11ю615885 0.0 1015375
18:00−12ю615905 0.0 1015327
21:00−11ю7178980 0.0 1014388
21 января, пт
пт2100:00−10ю71790100 0.1 1014470
03:00−8ююв71694100 0.6 1012520
06:00−8ююв71692100 0.1 1010508
09:00−7ююв81794100 1.1 1009653
12:00−5ююв81693100 0.3 1008726
15:00−3ююв81493100 0.6 1006651
18:00−3юв81696100 1.1 1004719
21:00−3юз6119162 2.5 1006570
22 января, сб
сб2200:00−9ю4109682 0.0 1009201
03:00−11ю389895 0.0 1011124
06:00−10ююв489795 0.1 1012179
09:00−11ююв499770 0.1 1014161
12:00−9ююв479674 0.0 1016216
15:00−9ююв359628 0.0 1017124
18:00−16юв2210092 0.0 101913
21:00−17ююв11100100 0.1 10219